Weather History for Fullerton, CA

Change the Weather History Date:

Wednesday, September 28, 2011

  Actual Average Record
Temperature  
Mean Temperature 72 °F 71 °F  
Max Temperature 77 °F 81 °F 99 °F (2005)
Min Temperature 67 °F 61 °F 54 °F (2013)
Degree Days  
Heating Degree Days 0 0  
Month to date heating degree days 0 0  
Since 1 July heating degree days 0 0  
Cooling Degree Days 7 6  
Month to date cooling degree days 246 243  
Year to date cooling degree days 1003 1106  
Growing Degree Days 20 (Base 50)    
Moisture  
Dew Point 60 °F    
Average Humidity 71    
Maximum Humidity 81    
Minimum Humidity 60    
Precipitation  
Precipitation 0.00 in 0.01 in 0.01 in (2001)
Month to date precipitation 0.06 0.21  
Year to date precipitation 5.63 9.95  
Since 1 July precipitation 0.06 0.30  
Snow  
Snow 0.00 in - - ()
Month to date snowfall 0.0  
Year to date snowfall 0.0  
Since 1 July snowfall 0.0  
Snow Depth 0.00 in    
Sea Level Pressure  
Sea Level Pressure 29.96 in    
Wind  
Wind Speed 2 mph (SSW)    
Max Wind Speed 9 mph    
Max Gust Speed 14 mph    
Visibility 6 miles    
Events      
T = Trace of Precipitation, MM = Missing Value Source: NWS Daily Summary

Daily Weather History Graph

Daily Weather History Graph

Search for Another Location

Airport:

Trip Planner

Search our weather history database for the weather conditions in past years. The results will help you decide how hot, cold, wet, or windy it might be!

Date:

Astronomy

Sep. 28, 2011 Rise Set
Actual Time 6:44 AM PDT 6:40 PM PDT
Civil Twilight 6:19 AM PDT 7:05 PM PDT
Nautical Twilight 5:50 AM PDT 7:34 PM PDT
Astronomical Twilight 5:21 AM PDT 8:03 PM PDT
Moon 8:11 AM PDT (9/28) 7:22 PM PDT (9/28)
Length of Visible Light 12h 46m
Length of Day
11h 56m
Waxing Crescent, 3% of the Moon is Illuminated
Sep 28
Waxing Crescent
Oct 3
First Quarter
Oct 11
Full
Oct 19
Last Quarter
Oct 26
New

Hourly Weather History & Observations

Time (PDT) Temp. Dew Point Humidity Pressure Visibility Wind Dir Wind Speed Gust Speed Precip Events Conditions
2:53 AM 68.0 °F 61.0 °F 78% 29.93 in 4.0 mi Calm Calm - N/A   Haze
3:53 AM 68.0 °F 61.0 °F 78% 29.93 in 4.0 mi Calm Calm - N/A   Haze
4:53 AM 68.0 °F 61.0 °F 78% 29.93 in 4.0 mi Calm Calm - N/A   Haze
5:53 AM 68.0 °F 61.0 °F 78% 29.94 in 4.0 mi Calm Calm - N/A   Haze
7:09 AM 68.0 °F 60.8 °F 78% 29.96 in 2.5 mi Calm Calm - N/A   Haze
7:17 AM 68.0 °F 60.8 °F 78% 29.96 in 3.0 mi Calm Calm - N/A   Haze
7:53 AM 68.0 °F 61.0 °F 78% 29.97 in 2.5 mi Calm Calm - N/A   Haze
8:36 AM 68.0 °F 60.8 °F 78% 29.99 in 3.0 mi SW 4.6 mph - N/A   Haze
8:53 AM 68.0 °F 61.0 °F 78% 29.99 in 3.0 mi Calm Calm - N/A   Haze
9:53 AM 66.9 °F 61.0 °F 81% 30.00 in 4.0 mi Variable 3.5 mph - N/A   Haze
10:53 AM 69.1 °F 61.0 °F 75% 29.99 in 4.0 mi Calm Calm - N/A   Haze
11:53 AM 69.1 °F 61.0 °F 75% 29.98 in 5.0 mi South 3.5 mph - N/A   Haze
12:53 PM 72.0 °F 61.0 °F 68% 29.96 in 5.0 mi Variable 4.6 mph - N/A   Haze
1:18 PM 75.2 °F 60.8 °F 61% 29.95 in 6.0 mi Variable 4.6 mph - N/A   Haze
1:53 PM 75.0 °F 61.0 °F 62% 29.94 in 6.0 mi Variable 6.9 mph - N/A   Haze
2:53 PM 75.9 °F 61.0 °F 60% 29.92 in 8.0 mi WSW 4.6 mph - N/A   Clear
3:53 PM 75.0 °F 61.0 °F 62% 29.91 in 9.0 mi SW 6.9 mph - N/A   Clear
4:53 PM 72.0 °F 60.1 °F 66% 29.92 in 9.0 mi SSW 6.9 mph - N/A   Clear
5:53 PM 68.0 °F 60.1 °F 76% 29.93 in 9.0 mi South 6.9 mph - N/A   Scattered Clouds
6:13 PM 66.2 °F 59.0 °F 78% 29.94 in 9.0 mi SSW 6.9 mph - N/A   Mostly Cloudy
7:53 PM 66.0 °F 59.0 °F 78% 29.96 in 10.0 mi South 3.5 mph - N/A   Overcast
8:53 PM 66.9 °F 59.0 °F 76% 29.97 in 10.0 mi Calm Calm - N/A   Overcast
9:53 PM 66.9 °F 59.0 °F 76% 29.98 in 9.0 mi Calm Calm - N/A   Overcast
10:32 PM 66.2 °F 59.0 °F 78% 29.98 in 8.0 mi Calm Calm - N/A   Scattered Clouds
10:53 PM 66.0 °F 59.0 °F 78% 29.98 in 8.0 mi Calm Calm - N/A   Clear
11:53 PM 64.9 °F 59.0 °F 81% 29.98 in 8.0 mi Calm Calm - N/A   Partly Cloudy